DMSP 5D-2 F13 DEB, 42319

Orbit data source: Space-Track

DMSP 5D-2 F13 DEB, 42319 is space debris in SSO originally from a launch on Fri, 24 Mar 1995 UTC launched from the Air Force Western Test Range (AFWTR). Debris objects in space refer to the collection of defunct objects orbiting the Earth. Examples of debris include non-operational satellites, rocket bodies, and fragments generated from explosions, collisions, or faulty payload assembly.

Loading next visibility...
Identifier
42319, 1995-015JM
Orbit
SSO
Country
Flag of USUS
Related business
Manufacturer
Unknown
Mission
Spacecraft
Bus & Motor
Unknown
Mass
Unknown
Launch date (UTC)
1995-03-24 (31 years ago)
Launch vehicle
Unknown
Launch site
Air Force Western Test Range (AFWTR)
Object type
Payload
Rocket body
Debris
Shape & HBR
Unknown shape, 0.1 m
Radar Cross Section
Small (<0.1 m²)

Expand to show TLE details & history
Last TLE update: 9 hours ago

TLE from 9 hours ago
0 DMSP 5D-2 F13 DEB
1 42319U 95015JM  26238.36886564  .00005262  00000-0  17148-2 0  9994
2 42319  98.8785 287.4780 0026865 115.0979 245.2999 14.38916522588407
Epoch: 2026-08-26T08:51Z
TLE epoch observation values (Epoch: 2026-08-26T08:51:09.991Z)
Latitude
-0.00006°
Longitude
-179.93648°
Altitude
773.075 km
Speed
7.463 km/s
True Right ascension
19h 09m 54s
True Declination
0° 00' 00"
Sunlit
Object was in full shadow at epoch
Visualization orbit readout
Latitude
Unknown
Longitude
Unknown
Altitude
Unknown
Speed
Unknown
Apparent Right ascension
Unknown
Apparent Declination
Unknown
Sunlit
N/A
Visualization observer readout
Local Sidereal Time
09:18:52
Azimuth
Unknown
Elevation
Unknown
Doppler factor
Unknown
Orbital elements
Apogee altitude
778.397 km
Perigee altitude
740.048 km
Semi-major axis
7,137.359 km
Eccentricity
0.00269
Inclination
98.8785°
RAAN
287.478°
Arg. of periapsis
115.0979°
True anomaly
245.02061°
Mean anomaly
245.2999°
Eccentric anomaly
245.16022°
Mean motion
3.59946 °/min
Orbital period
100.02 mins
BSTAR
0.0017148
Loading maneuver chart data...
Computing Atmospheric mass density...

Documentation

Showing up to 5 results
|